Location: Asheville, NC
(35.6000°N, 82.5500°W)
Time: 14:36:29
(UTC-04:00)

Vanguard 1 Rocket - Pass Details

Date: 12 December 2017
Orbit: 655 x 4223 km, 34.3° (Epoch: 19 April)

Event Time Altitude Azimuth Distance (km) Brightness Sun altitude
Rises 18:31:16 0° 254° (WSW) 4,576 13.0 -14.6°
Reaches altitude 10° 18:33:39 10° 253° (WSW) 3,906 12.0 -15.0°
Maximum altitude 18:44:45 81° 168° (SSE) 2,598 9.6 -17.2°
Enters shadow 19:00:00 23° 85° (E) 5,582 10.7 -20.2°
